When you browse on this site, cookies collect data to enhance your experience and personalize the content and advertising you see.
Visit our Privacy Policy to learn more. By continuing to use the site, you agree to this use of cookies and data.
  • In Sweden
  • List of Countries
  • For 7 days
  • Water Temperature
  • Satellite Maps
  • Weather Map
  • Weather Widgets
  • user-avatar
    Login

    Hourly Weather Smolan

    Today, 16 January, Wednesday

    Time Temperature Precipitation Wind Pressure Humidity
    00:00 -15°C° 0 mm 3 mps 648 mmHg 82%
    01:00 -16°C° 0 mm 3 mps 648 mmHg 82%
    02:00 -16°C° 0 mm 3 mps 648 mmHg 83%
    03:00 -14°C° 0 mm 2 mps 648 mmHg 83%
    04:00 -14°C° 0 mm 2 mps 649 mmHg 84%
    05:00 -13°C° 0 mm 2 mps 649 mmHg 85%
    06:00 -13°C° 0 mm 2 mps 649 mmHg 85%
    07:00 -12°C° 0 mm 2 mps 649 mmHg 85%
    08:00 -12°C° 0 mm 2 mps 650 mmHg 85%
    09:00 -8°C° 0 mm 2 mps 651 mmHg 82%
    10:00 -5°C° 0 mm 2 mps 651 mmHg 80%
    11:00 -3°C° 0 mm 2 mps 652 mmHg 77%
    12:00 -2°C° 0 mm 2 mps 652 mmHg 80%
    13:00 -1°C° 0 mm 2 mps 652 mmHg 83%
    14:00 +1°C° 0 mm 2 mps 652 mmHg 86%
    15:00 -1°C° 0 mm 2 mps 652 mmHg 87%
    16:00 -2°C° 0 mm 2 mps 651 mmHg 87%
    17:00 -3°C° 0 mm 2 mps 651 mmHg 88%
    18:00 -3°C° 0 mm 2 mps 651 mmHg 86%
    19:00 -4°C° 0 mm 2 mps 651 mmHg 84%
    20:00 -5°C° 0 mm 2 mps 652 mmHg 82%
    21:00 -4°C° 0 mm 2 mps 652 mmHg 81%
    22:00 -4°C° 0 mm 2 mps 652 mmHg 79%
    23:00 -4°C° 0 mm 2 mps 653 mmHg 77%

    Tomorrow, 17 January, Thursday

    Time Temperature Precipitation Wind Pressure Humidity
    00:00 -4°C° 0 mm 2 mps 653 mmHg 76%
    01:00 -4°C° 0 mm 2 mps 653 mmHg 75%
    02:00 -4°C° 0 mm 2 mps 653 mmHg 74%
    03:00 -4°C° 0 mm 2 mps 653 mmHg 73%
    04:00 -2°C° 0 mm 1 mps 653 mmHg 72%
    05:00 -2°C° 0 mm 1 mps 653 mmHg 70%
    06:00 -2°C° 0 mm 1 mps 653 mmHg 70%
    07:00 -2°C° 0 mm 1 mps 653 mmHg 70%
    08:00 -2°C° 0 mm 1 mps 653 mmHg 69%
    09:00 0°C° 0 mm 1 mps 654 mmHg 76%
    10:00 +1°C° 0 mm 1 mps 655 mmHg 82%
    11:00 +3°C° 0 mm 1 mps 655 mmHg 89%
    12:00 +3°C° 0 mm 1 mps 655 mmHg 89%
    13:00 +3°C° 0 mm 1 mps 655 mmHg 90%
    14:00 +3°C° 0 mm 1 mps 654 mmHg 91%
    15:00 +2°C° 0 mm 1 mps 654 mmHg 92%
    16:00 +1°C° 0 mm 1 mps 653 mmHg 93%
    17:00 0°C° 0 mm 1 mps 653 mmHg 95%
    18:00 0°C° 0 mm 1 mps 653 mmHg 89%
    19:00 -1°C° 0 mm 1 mps 653 mmHg 84%
    20:00 -2°C° 0 mm 1 mps 653 mmHg 78%
    21:00 -2°C° 0 mm 1 mps 652 mmHg 76%
    22:00 -4°C° 0 mm 2 mps 652 mmHg 73%
    23:00 -5°C° 0 mm 2 mps 652 mmHg 70%

    Day after tomorrow, 18 January, Friday

    Time Temperature Precipitation Wind Pressure Humidity
    00:00 -5°C° 0 mm 2 mps 652 mmHg 69%
    01:00 -5°C° 0 mm 2 mps 652 mmHg 68%
    02:00 -5°C° 0 mm 2 mps 652 mmHg 67%
    03:00 -5°C° 0 mm 2 mps 652 mmHg 66%
    04:00 -5°C° 0 mm 2 mps 652 mmHg 66%
    05:00 -5°C° 0 mm 2 mps 651 mmHg 65%
    06:00 -5°C° 0 mm 2 mps 651 mmHg 64%
    07:00 -5°C° 0 mm 2 mps 652 mmHg 64%
    08:00 -5°C° 0 mm 2 mps 652 mmHg 64%
    09:00 -1°C° 0 mm 1 mps 652 mmHg 71%
    10:00 +1°C° 0 mm 1 mps 653 mmHg 78%
    11:00 +3°C° 0 mm 1 mps 654 mmHg 85%
    12:00 +3°C° 0 mm 1 mps 653 mmHg 86%
    13:00 +3°C° 0 mm 1 mps 653 mmHg 87%
    14:00 +4°C° 0 mm 1 mps 653 mmHg 88%
    15:00 +3°C° 0 mm 1 mps 653 mmHg 88%
    16:00 +2°C° 0 mm 1 mps 652 mmHg 87%
    17:00 +1°C° 0 mm 1 mps 652 mmHg 87%
    18:00 0°C° 0 mm 1 mps 652 mmHg 85%
    19:00 0°C° 0 mm 1 mps 653 mmHg 84%
    20:00 -1°C° 0 mm 1 mps 653 mmHg 82%
    21:00 -1°C° 0 mm 1 mps 653 mmHg 81%
    22:00 -1°C° 0 mm 1 mps 653 mmHg 80%
    23:00 -1°C° 0 mm 1 mps 653 mmHg 79%

    19 January, Saturday

    Time Temperature Precipitation Wind Pressure Humidity
    00:00 -1°C° 0 mm 1 mps 653 mmHg 78%
    01:00 -1°C° 0 mm 1 mps 653 mmHg 77%
    02:00 -2°C° 0 mm 1 mps 653 mmHg 77%
    03:00 -2°C° 0 mm 1 mps 653 mmHg 76%
    04:00 -2°C° 0 mm 1 mps 653 mmHg 76%
    05:00 -2°C° 0 mm 1 mps 653 mmHg 75%
    06:00 -2°C° 0 mm 1 mps 653 mmHg 75%
    07:00 -2°C° 0 mm 1 mps 653 mmHg 75%
    08:00 -3°C° 0 mm 1 mps 653 mmHg 75%
    09:00 -1°C° 0 mm 1 mps 654 mmHg 78%
    10:00 +1°C° 0 mm 1 mps 654 mmHg 82%
    11:00 +2°C° 0 mm 1 mps 655 mmHg 85%
    12:00 +3°C° 0 mm 1 mps 655 mmHg 87%
    13:00 +3°C° 0 mm 1 mps 654 mmHg 89%
    14:00 +3°C° 0 mm 1 mps 654 mmHg 91%
    15:00 +2°C° 0 mm 1 mps 654 mmHg 93%
    16:00 +2°C° 0 mm 1 mps 653 mmHg 94%
    17:00 +1°C° 0 mm 1 mps 653 mmHg 96%
    18:00 +1°C° 0 mm 1 mps 653 mmHg 96%
    19:00 0°C° 0 mm 1 mps 653 mmHg 95%
    20:00 -1°C° 0 mm 1 mps 653 mmHg 95%
    21:00 -1°C° 0 mm 1 mps 653 mmHg 94%
    22:00 -1°C° 0 mm 1 mps 653 mmHg 94%
    23:00 -1°C° 0 mm 1 mps 653 mmHg 93%

    20 January, Sunday

    Time Temperature Precipitation Wind Pressure Humidity
    00:00 -1°C° 0 mm 1 mps 653 mmHg 93%
    01:00 -1°C° 0 mm 1 mps 652 mmHg 94%
    02:00 -1°C° 0 mm 1 mps 652 mmHg 94%
    03:00 -1°C° 0 mm 1 mps 652 mmHg 93%
    04:00 -1°C° 0 mm 1 mps 652 mmHg 93%
    05:00 -2°C° 0 mm 1 mps 651 mmHg 93%
    06:00 -2°C° 0 mm 1 mps 651 mmHg 93%
    07:00 -1°C° 0 mm 1 mps 651 mmHg 93%
    08:00 -1°C° 0 mm 1 mps 651 mmHg 92%
    09:00 -2°C° 0 mm 2 mps 652 mmHg 93%
    10:00 +1°C° 0 mm 2 mps 652 mmHg 93%
    11:00 +2°C° 0 mm 2 mps 653 mmHg 94%
    12:00 +2°C° 0 mm 2 mps 652 mmHg 93%
    13:00 +2°C° 0 mm 2 mps 652 mmHg 93%
    14:00 +2°C° 0 mm 2 mps 651 mmHg 93%
    15:00 +2°C° 0 mm 2 mps 651 mmHg 93%
    16:00 +1°C° 0 mm 2 mps 651 mmHg 94%
    17:00 +1°C° 0 mm 2 mps 651 mmHg 94%
    18:00 +1°C° 0 mm 1 mps 651 mmHg 94%
    19:00 0°C° 0 mm 1 mps 651 mmHg 94%
    20:00 -1°C° 0 mm 1 mps 651 mmHg 93%
    21:00 -1°C° 0 mm 1 mps 651 mmHg 92%
    22:00 -1°C° 0 mm 1 mps 651 mmHg 92%
    23:00 -1°C° 0 mm 1 mps 651 mmHg 91%

    21 January, Monday

    Time Temperature Precipitation Wind Pressure Humidity
    00:00 -1°C° 0 mm 1 mps 652 mmHg 90%
    01:00 -1°C° 0 mm 1 mps 652 mmHg 90%
    02:00 -1°C° 0 mm 1 mps 652 mmHg 89%
    03:00 -1°C° 0 mm 1 mps 652 mmHg 90%
    04:00 -1°C° 0 mm 1 mps 652 mmHg 90%
    05:00 -2°C° 0 mm 1 mps 652 mmHg 91%
    06:00 -2°C° 0 mm 1 mps 653 mmHg 91%
    07:00 -2°C° 0 mm 1 mps 653 mmHg 92%
    08:00 -2°C° 0 mm 1 mps 654 mmHg 93%
    09:00 -1°C° 0.1 mm 1 mps 655 mmHg 93%
    10:00 0°C° 0.1 mm 1 mps 655 mmHg 93%
    11:00 +1°C° 0.1 mm 1 mps 656 mmHg 92%
    12:00 +1°C° 0.2 mm 1 mps 656 mmHg 93%
    13:00 +1°C° 0.2 mm 1 mps 656 mmHg 94%
    14:00 +1°C° 0.2 mm 1 mps 656 mmHg 95%
    15:00 +1°C° 0.2 mm 1 mps 656 mmHg 95%
    16:00 0°C° 0.2 mm 1 mps 656 mmHg 96%
    17:00 0°C° 0.2 mm 1 mps 657 mmHg 96%
    18:00 -1°C° 0.2 mm 1 mps 657 mmHg 96%
    19:00 -1°C° 0.2 mm 1 mps 657 mmHg 96%
    20:00 -2°C° 0.2 mm 1 mps 657 mmHg 97%
    21:00 -2°C° 0.2 mm 1 mps 657 mmHg 96%
    22:00 -3°C° 0.2 mm 1 mps 657 mmHg 96%
    23:00 -3°C° 0.2 mm 1 mps 657 mmHg 96%
    Show more